Location: Cortos
(40.7190°N, 4.5893°W)
Time: 03:52:46
(UTC+00:00)

Nadezhda 3 Rocket - Pass Details

Date: 05 July 2020
Orbit: 957 x 1000 km, 82.9° (Epoch: 11 August)

Event Time Altitude Azimuth Distance (km) Brightness Sun altitude
Rises 23:03:20 0° 352° (N) 3,730 8.4 -24.0°
Reaches altitude 10° 23:05:52 10° 352° (N) 2,775 7.4 -24.1°
Maximum altitude 23:12:16 86° 265° (W) 1,001 4.0 -24.5°
Enters shadow 23:13:53 53° 181° (S) 1,198 4.1 -24.6°
